TimeMDT,TemperatureF,Dew PointF,Humidity,Sea Level PressureIn,VisibilityMPH,Wind Direction,Wind SpeedMPH,Gust SpeedMPH,PrecipitationIn,Events,Conditions,WindDirDegrees,DateUTC
12:15 AM,33.3,14.9,47,30.31,10.0,West,10.4,-,N/A,,Clear,260,2012-10-29 06:15:00
12:35 AM,34.3,14.7,45,30.31,10.0,SW,3.5,-,N/A,,Clear,230,2012-10-29 06:35:00
12:55 AM,35.6,14.7,42,30.31,10.0,Calm,Calm,-,N/A,,Clear,0,2012-10-29 06:55:00
1:15 AM,34.5,15.3,45,30.31,10.0,West,4.6,-,N/A,,Clear,260,2012-10-29 07:15:00
1:35 AM,32.9,14.9,48,30.31,10.0,Calm,Calm,-,N/A,,Clear,0,2012-10-29 07:35:00
1:55 AM,30.9,14.7,51,30.32,10.0,Calm,Calm,-,N/A,,Clear,0,2012-10-29 07:55:00
2:15 AM,27.1,14.4,59,30.32,10.0,Calm,Calm,-,N/A,,Clear,0,2012-10-29 08:15:00
2:35 AM,25.5,13.1,59,30.32,10.0,Calm,Calm,-,N/A,,Clear,0,2012-10-29 08:35:00
2:55 AM,22.8,12.7,65,30.32,10.0,East,3.5,-,N/A,,Clear,100,2012-10-29 08:55:00
3:15 AM,21.6,12.2,67,30.32,10.0,Calm,Calm,-,N/A,,Clear,0,2012-10-29 09:15:00
3:35 AM,21.4,11.8,67,30.32,10.0,Calm,Calm,-,N/A,,Clear,0,2012-10-29 09:35:00
3:55 AM,21.0,11.5,67,30.32,10.0,Calm,Calm,-,N/A,,Clear,0,2012-10-29 09:55:00
4:55 AM,17.6,10.4,73,30.33,10.0,Calm,Calm,-,N/A,,Clear,0,2012-10-29 10:55:00
5:15 AM,16.9,9.7,73,30.33,10.0,SSE,3.5,-,N/A,,Clear,150,2012-10-29 11:15:00
5:35 AM,17.6,9.7,71,30.33,10.0,Calm,Calm,-,N/A,,Clear,0,2012-10-29 11:35:00
5:55 AM,17.6,10.2,73,30.34,10.0,Calm,Calm,-,N/A,,Clear,0,2012-10-29 11:55:00
6:15 AM,18.3,10.0,70,30.34,10.0,Calm,Calm,-,N/A,,Clear,0,2012-10-29 12:15:00
6:35 AM,18.9,10.9,71,30.34,10.0,Calm,Calm,-,N/A,,Clear,0,2012-10-29 12:35:00
6:55 AM,19.2,10.9,70,30.34,10.0,Calm,Calm,-,N/A,,Clear,0,2012-10-29 12:55:00
7:15 AM,19.6,12.0,72,30.35,10.0,Calm,Calm,-,N/A,,Clear,0,2012-10-29 13:15:00
7:35 AM,17.6,10.4,73,30.36,10.0,Calm,Calm,-,N/A,,Clear,0,2012-10-29 13:35:00
7:55 AM,21.4,13.1,70,30.36,10.0,SE,4.6,-,N/A,,Clear,130,2012-10-29 13:55:00
8:35 AM,30.6,16.7,56,30.37,10.0,Calm,Calm,-,N/A,,Clear,0,2012-10-29 14:35:00
8:55 AM,31.6,17.1,55,30.38,10.0,Calm,Calm,-,N/A,,Clear,0,2012-10-29 14:55:00
9:15 AM,33.4,16.9,51,30.38,10.0,Calm,Calm,-,N/A,,Clear,0,2012-10-29 15:15:00
9:35 AM,35.4,16.7,47,30.38,10.0,Calm,Calm,-,N/A,,Clear,0,2012-10-29 15:35:00
9:55 AM,36.5,16.9,45,30.37,10.0,Calm,Calm,-,N/A,,Clear,0,2012-10-29 15:55:00
10:15 AM,41.5,17.6,38,30.36,10.0,Calm,Calm,-,N/A,,Clear,0,2012-10-29 16:15:00
10:35 AM,50.9,11.5,21,30.35,10.0,SSE,3.5,-,N/A,,Clear,150,2012-10-29 16:35:00
10:55 AM,53.1,11.1,19,30.35,10.0,ESE,3.5,-,N/A,,Clear,120,2012-10-29 16:55:00
11:35 AM,56.7,9.0,15,30.35,10.0,WNW,5.8,-,N/A,,Clear,300,2012-10-29 17:35:00
12:15 PM,58.5,4.8,12,30.33,10.0,SW,8.1,-,N/A,,Clear,220,2012-10-29 18:15:00
12:35 PM,59.2,4.3,11,30.31,10.0,West,15.0,19.6,N/A,,Clear,260,2012-10-29 18:35:00
12:55 PM,59.0,3.4,11,30.31,10.0,West,17.3,25.3,N/A,,Clear,260,2012-10-29 18:55:00
1:15 PM,58.5,7.9,13,30.30,10.0,West,19.6,26.5,N/A,,Clear,270,2012-10-29 19:15:00
1:35 PM,59.0,8.4,13,30.29,10.0,West,17.3,24.2,N/A,,Clear,260,2012-10-29 19:35:00
1:55 PM,59.9,6.6,12,30.29,10.0,West,19.6,26.5,N/A,,Clear,260,2012-10-29 19:55:00
2:15 PM,60.1,4.6,11,30.28,10.0,West,20.7,25.3,N/A,,Clear,260,2012-10-29 20:15:00
2:35 PM,60.6,1.8,9,30.27,10.0,WSW,19.6,26.5,N/A,,Clear,250,2012-10-29 20:35:00
2:55 PM,60.3,1.9,10,30.27,10.0,West,20.7,28.8,N/A,,Clear,270,2012-10-29 20:55:00
3:15 PM,59.9,3.4,10,30.28,10.0,West,19.6,25.3,N/A,,Clear,260,2012-10-29 21:15:00
3:35 PM,60.1,3.0,10,30.27,10.0,West,19.6,24.2,N/A,,Clear,260,2012-10-29 21:35:00
3:55 PM,60.8,3.2,10,30.27,10.0,West,18.4,21.9,N/A,,Clear,260,2012-10-29 21:55:00
4:15 PM,59.5,5.2,11,30.27,10.0,WSW,20.7,-,N/A,,Clear,250,2012-10-29 22:15:00
4:35 PM,59.4,5.7,12,30.27,10.0,WSW,18.4,23.0,N/A,,Clear,250,2012-10-29 22:35:00
4:55 PM,58.5,5.9,12,30.27,10.0,WSW,13.8,23.0,N/A,,Clear,250,2012-10-29 22:55:00
5:15 PM,57.7,6.4,13,30.27,10.0,West,15.0,-,N/A,,Clear,260,2012-10-29 23:15:00
5:35 PM,56.7,7.2,14,30.28,10.0,West,10.4,-,N/A,,Clear,270,2012-10-29 23:35:00
5:55 PM,54.0,8.2,16,30.28,10.0,West,10.4,-,N/A,,Clear,270,2012-10-29 23:55:00
6:15 PM,51.8,9.1,18,30.28,10.0,West,11.5,-,N/A,,Clear,270,2012-10-30 00:15:00
6:35 PM,44.4,10.0,25,30.29,10.0,WNW,5.8,-,N/A,,Clear,290,2012-10-30 00:35:00
9:35 PM,36.7,9.9,33,30.32,10.0,SSW,3.5,-,N/A,,Clear,200,2012-10-30 03:35:00
9:55 PM,32.0,10.9,42,30.33,10.0,Calm,Calm,-,N/A,,Clear,0,2012-10-30 03:55:00
10:15 PM,33.4,11.5,40,30.33,10.0,Calm,Calm,-,N/A,,Clear,0,2012-10-30 04:15:00
10:35 PM,33.6,12.7,42,30.34,10.0,NNE,3.5,-,N/A,,Clear,20,2012-10-30 04:35:00
10:55 PM,32.4,13.3,45,30.34,10.0,Calm,Calm,-,N/A,,Clear,0,2012-10-30 04:55:00
11:15 PM,28.6,12.2,50,30.34,10.0,East,3.5,-,N/A,,Clear,100,2012-10-30 05:15:00
11:35 PM,29.3,11.8,48,30.34,10.0,Calm,Calm,-,N/A,,Clear,0,2012-10-30 05:35:00
11:55 PM,28.4,12.0,50,30.34,10.0,Calm,Calm,-,N/A,,Clear,0,2012-10-30 05:55:00